CW9927 Weather Reports


time (UTC)temp
F
wind
direction
speed
knots
gust
knots
rain 1hr
in
rain 24hr
in
rain mn
in
humidity
%
barometer
mb
20260902210116 76 0.0 0.9 0.00 0.00 0.00 57 1017.6
20260902205157 76 0.0 0.0 0.00 0.00 0.00 55 1017.8
20260902204116 77 0.0 0.0 0.00 0.00 0.00 54 1017.8
20260902203157 76 0.0 0.0 0.00 0.00 0.00 57 1017.9
20260902202116 76 0.0 0.0 0.00 0.00 0.00 56 1017.9
20260902201137 76 0.0 0.0 0.00 0.00 0.00 57 1017.9
20260902200116 75 0.0 0.0 0.00 0.00 0.00 57 1018.1
20260902195116 75 0.0 0.0 0.00 0.00 0.00 58 1018.2
20260902194117 76 0.0 0.0 0.00 0.00 0.00 58 1018.1
20260902193116 75 0.0 0.0 0.00 0.00 0.00 58 1018.3
20260902192136 75 0.0 0.0 0.00 0.00 0.00 60 1018.2
20260902191136 74 0.0 0.0 0.00 0.00 0.00 59 1018.3
20260902185116 73 0.0 0.0 0.00 0.00 0.00 61 1018.4
20260902184116 72 0.0 0.0 0.00 0.00 0.00 62 1018.5
20260902183116 71 0.0 0.0 0.00 0.00 0.00 62 1018.5
20260902182116 71 0.0 0.0 0.00 0.00 0.00 63 1018.7
20260902181117 71 0.0 0.0 0.00 0.00 0.00 62 1018.8
20260902180157 70 0.0 0.0 0.00 0.00 0.00 64 1018.8
20260902175116 70 0.0 0.0 0.00 0.00 0.00 64 1018.9
20260902174116 69 0.0 0.0 0.00 0.00 0.00 65 1018.9
20260902173116 68 0.0 0.0 0.00 0.00 0.00 66 1018.8
20260902172116 68 0.0 0.0 0.00 0.00 0.00 67 1018.8
20260902171136 67 0.0 0.0 0.00 0.00 0.00 67 1018.8
20260902170116 67 0.0 0.0 0.00 0.00 0.00 67 1018.9
20260902165116 67 0.0 0.0 0.00 0.00 0.00 68 1018.9
20260902164116 65 0.0 0.0 0.00 0.00 0.00 71 1019.0
20260902163116 65 0.0 0.0 0.00 0.00 0.00 71 1019.0
20260902162138 64 0.0 0.0 0.00 0.00 0.00 77 1018.8
20260902161116 61 0.0 0.0 0.00 0.00 0.00 81 1018.8
20260902160116 60 0.0 0.0 0.00 0.00 0.00 85 1018.8
20260902155116 58 0.0 0.0 0.00 0.00 0.00 85 1018.7
20260902154116 58 0.0 0.0 0.00 0.00 0.00 89 1018.7
20260902153139 56 0.0 0.0 0.00 0.00 0.00 91 1018.7
20260902152118 55 0.0 0.0 0.00 0.00 0.00 91 1018.7
20260902151118 55 0.0 0.0 0.00 0.00 0.00 91 1018.8
20260902150116 56 0.0 0.0 0.00 0.00 0.00 92 1018.7
20260902145116 54 0.0 0.0 0.00 0.00 0.00 93 1018.6
20260902144136 53 0.0 0.0 0.00 0.00 0.00 93 1018.6
20260902143116 51 0.0 0.0 0.00 0.00 0.00 93 1018.3
20260902142120 49 0.0 0.0 0.00 0.00 0.00 91 1018.2
20260902141119 49 0.0 0.0 0.00 0.00 0.00 91 1018.1
20260902140116 49 0.0 0.0 0.00 0.00 0.00 91 1018.1
20260902135116 49 0.0 0.0 0.00 0.00 0.00 91 1018.1
20260902134116 49 0.0 0.0 0.00 0.00 0.00 91 1018.1
20260902133116 49 0.0 0.0 0.00 0.00 0.00 91 1018.1
20260902132137 49 0.0 0.0 0.00 0.00 0.00 91 1017.9
20260902131116 49 0.0 0.0 0.00 0.00 0.00 90 1017.8
20260902125316 49 0.0 0.0 0.00 0.00 0.00 90 1017.8
20260902124318 50 0.0 0.0 0.00 0.00 0.00 90 1017.8
20260902123318 50 0.0 0.0 0.00 0.00 0.00 90 1017.7
20260902122316 50 0.0 0.0 0.00 0.00 0.00 91 1017.7
20260902121316 49 0.0 0.0 0.00 0.00 0.00 90 1017.6
20260902120316 49 0.0 0.0 0.00 0.00 0.00 90 1017.8
20260902115316 49 0.0 0.0 0.00 0.00 0.00 89 1017.8
20260902114316 49 0.0 0.0 0.00 0.00 0.00 89 1017.9
20260902113336 49 0.0 0.0 0.00 0.00 0.00 89 1017.8
20260902112316 49 0.0 0.0 0.00 0.00 0.00 89 1017.9
20260902111316 49 0.0 0.0 0.00 0.00 0.00 89 1017.9
20260902110316 50 0.0 0.0 0.00 0.00 0.00 89 1017.9
20260902105316 50 0.0 0.0 0.00 0.00 0.00 89 1017.9
20260902104316 50 0.0 0.0 0.00 0.00 0.00 89 1017.9
20260902103336 50 0.0 0.0 0.00 0.00 0.00 89 1017.9
20260902102316 51 0.0 0.0 0.00 0.00 0.00 89 1017.9
20260902101316 51 0.0 0.0 0.00 0.00 0.00 89 1018.0
20260902100316 51 0.0 0.0 0.00 0.00 0.00 89 1018.0
20260902095316 52 0.0 0.0 0.00 0.00 0.00 89 1017.8
20260902094316 52 0.0 0.0 0.00 0.00 0.00 89 1017.8
20260902093336 52 0.0 0.0 0.00 0.00 0.00 89 1017.8
20260902092316 52 0.0 0.0 0.00 0.00 0.00 88 1017.7
20260902091336 51 0.0 0.0 0.00 0.00 0.00 88 1017.7
20260902090316 52 0.0 0.0 0.00 0.00 0.00 88 1017.7
20260902085317 52 0.0 0.0 0.00 0.00 0.00 87 1017.8
20260902084316 52 0.0 0.0 0.00 0.00 0.00 87 1017.6
20260902083338 53 0.0 0.0 0.00 0.00 0.00 88 1017.7
20260902082336 53 0.0 0.0 0.00 0.00 0.00 88 1017.8
20260902081316 53 0.0 0.0 0.00 0.00 0.00 87 1017.8
20260902080316 53 0.0 0.0 0.00 0.00 0.00 87 1017.9
20260902075316 54 0.0 0.0 0.00 0.00 0.00 87 1017.9
20260902074316 54 0.0 0.0 0.00 0.00 0.00 87 1017.8
20260902073318 55 0.0 0.0 0.00 0.00 0.00 86 1017.9
20260902072338 55 0.0 0.0 0.00 0.00 0.00 87 1017.8
20260902071336 55 0.0 0.0 0.00 0.00 0.00 87 1017.7
20260902070340 55 0.0 0.0 0.00 0.00 0.00 87 1017.7
20260902070214 56 0.0 0.0 0.00 0.00 0.00 87 1017.7
20260902065419 56 0.0 0.0 0.00 0.00 0.00 86 1017.8
20260902064415 56 0.0 0.0 0.00 0.00 0.00 86 1017.7
20260902063418 56 0.0 0.0 0.00 0.00 0.00 86 1017.7
20260902062456 56 0.0 0.0 0.00 0.00 0.00 86 1017.7
20260902061418 57 0.0 0.0 0.00 0.00 0.00 85 1017.7
20260902060415 57 0.0 0.0 0.00 0.00 0.00 85 1017.9
20260902055417 57 0.0 0.0 0.00 0.00 0.00 84 1017.9
20260902054418 57 0.0 0.0 0.00 0.00 0.00 84 1017.9
20260902053417 58 0.0 0.0 0.00 0.00 0.00 84 1018.1
20260902052437 58 0.0 0.0 0.00 0.00 0.00 84 1018.1
20260902051417 58 0.0 0.0 0.00 0.00 0.00 84 1018.1
20260902050417 59 0.0 0.0 0.00 0.00 0.00 84 1018.2
20260902045418 59 0.0 0.0 0.00 0.00 0.00 84 1018.1
20260902044418 59 0.0 0.0 0.00 0.00 0.00 84 1018.1
20260902043418 60 0.0 0.0 0.00 0.00 0.00 84 1018.0
20260902042418 60 0.0 0.0 0.00 0.00 0.00 83 1018.0
20260902041418 60 0.0 0.0 0.00 0.00 0.00 83 1017.8
20260902040417 60 0.0 0.0 0.00 0.00 0.00 82 1017.8
20260902035418 60 0.0 0.0 0.00 0.00 0.00 81 1017.6
20260902034441 60 0.0 0.0 0.00 0.00 0.00 80 1017.4
20260902033417 61 0.0 0.0 0.00 0.00 0.00 79 1017.3
20260902032419 61 0.0 0.0 0.00 0.00 0.00 78 1017.2
20260902031417 61 0.0 0.0 0.00 0.00 0.00 77 1017.1
20260902030417 61 0.0 0.0 0.00 0.00 0.00 76 1017.0
20260902025435 62 0.0 0.0 0.00 0.00 0.00 75 1016.8
20260902024438 62 0.0 0.0 0.00 0.00 0.00 75 1016.5
20260902023417 62 0.0 0.0 0.00 0.00 0.00 73 1016.4
20260902022438 63 0.0 0.0 0.00 0.00 0.00 71 1016.4
20260902021438 64 0.0 0.0 0.00 0.00 0.00 69 1016.3
20260902020438 65 0.0 0.0 0.00 0.00 0.00 67 1016.3
20260902015418 66 0.0 0.0 0.00 0.00 0.00 66 1016.2
20260902014418 66 270 0.9 5.2 0.00 0.00 0.00 65 1016.1
20260902013417 66 225 1.7 7.8 0.00 0.00 0.00 64 1016.2
20260902012437 67 0.0 0.0 0.00 0.00 0.00 64 1016.0
20260902011437 67 0.0 0.0 0.00 0.00 0.00 62 1016.1
20260902010508 67 0.0 0.0 0.00 0.00 0.00 62 1016.0
20260902010348 67 0.0 0.0 0.00 0.00 0.00 62 1016.0
20260902005137 68 225 2.6 13.0 0.00 0.00 0.00 61 1015.9
20260902004138 68 0.0 0.9 0.00 0.00 0.00 61 1015.9
20260902003117 68 0.0 2.6 0.00 0.00 0.00 60 1015.8
20260902002117 69 225 6.1 12.2 0.00 0.00 0.00 59 1015.7
20260902001117 70 270 7.0 13.9 0.00 0.00 0.00 58 1015.8
20260902000118 71 270 4.3 7.8 0.00 0.00 0.00 56 1015.8
20260901235117 71 225 2.6 9.6 0.00 0.00 0.00 56 1015.7
20260901234117 72 248 1.7 6.1 0.00 0.00 0.00 56 1015.8
20260901233138 72 0.0 0.9 0.00 0.00 0.00 55 1015.8
20260901232117 72 0.0 0.0 0.00 0.00 0.00 54 1015.9
20260901231117 72 0.0 0.0 0.00 0.00 0.00 54 1016.0
20260901230138 73 0.0 0.0 0.00 0.00 0.00 54 1016.1
20260901225116 72 225 2.6 8.7 0.00 0.00 0.00 53 1016.2
20260901224116 73 0.0 0.0 0.00 0.00 0.00 53 1016.0
20260901223116 73 0.0 0.0 0.00 0.00 0.00 52 1016.1
20260901222116 73 0.0 0.0 0.00 0.00 0.00 51 1016.2
20260901221116 73 0.0 0.0 0.00 0.00 0.00 52 1016.2
20260901220116 73 0.0 0.0 0.00 0.00 0.00 52 1016.3
20260901215116 73 0.0 0.0 0.00 0.00 0.00 52 1016.4
20260901214116 73 0.0 0.0 0.00 0.00 0.00 53 1016.4
20260901213136 73 248 3.5 8.7 0.00 0.00 0.00 54 1016.5
20260901212157 73 0.0 0.0 0.00 0.00 0.00 55 1016.3